Flag for Canada Weather past 2 weeks in Creston, British Columbia, Canada

Now
48 °F

Cool.


Feels Like: 48 °F
Forecast: 39 / 76 °F
Wind: 2 mph from North

Location: Creston

Current Time: Apr 28, 2015 at 5:11:17 AM

Latest Report: Apr 28, 2015 at 4:00 AM


Visibility: N/A

Pressure: 30.19 "Hg

Humidity: 62%

Dew point: 35 °F

Location of CrestonLocation

Historic Weather in Creston — Graph

°F

Creston temperature yesterday

Maximum temperature yesterday: 67 °F (at 3:00 PM)
Minimum temperature yesterday: 38 °F (at 4:00 AM)
Average temperature yesterday: 52 °F

Past Weeks' High & Low Weather Summary

 TemperatureHumidityPressure
High72 °F (Apr 21, 4:00 PM)97% (Apr 14, 2:00 AM)30.44 "Hg (Apr 14, 2:00 AM)
Low33 °F (Apr 13, 6:00 AM)17% (Apr 18, 5:00 PM)29.71 "Hg (Apr 24, 4:00 AM)
Average50 °F55%30.05 "Hg
* Reported Apr 13 3:00 AM — Apr 28 3:00 AM, Creston, Weather by CustomWeather, © 2015

Note: Actual official high and low records may vary slightly from our data, if they occured in-between our weather recording intervals... More about our weather records

Advertising

Creston weather history for previous 24 hours

 ConditionsComfort  
Time TempWeatherWind HumidityBarometerVisibility
3:00 AM
Tue, Apr 28
47 °FCool.2 mph62%30.21 "HgN/A
2:00 AM49 °FCool.2 mph62%30.22 "HgN/A
1:00 AM50 °FCool.2 mph62%30.22 "HgN/A
12:00 AM52 °FCool.3 mph56%30.23 "HgN/A
11:00 PM
Mon, Apr 27
52 °FCool.2 mph51%30.24 "HgN/A
10:00 PM53 °FCool.2 mph54%30.24 "HgN/A
9:00 PM55 °FCool.3 mph53%30.24 "HgN/A
8:00 PM58 °FRefreshingly cool.2 mph43%30.22 "HgN/A
7:00 PM61 °FRefreshingly cool.2 mph40%30.22 "HgN/A
6:00 PM65 °FMild.3 mph32%30.23 "HgN/A
5:00 PM65 °FMild.6 mph33%30.24 "HgN/A
4:00 PM67 °FMild.6 mph30%30.26 "HgN/A
3:00 PM67 °FMild.5 mph29%30.27 "HgN/A
2:00 PM64 °FMild.5 mph29%30.30 "HgN/A
1:00 PM61 °FRefreshingly cool.3 mph35%30.33 "HgN/A
12:00 PM57 °FRefreshingly cool.3 mph43%30.36 "HgN/A
11:00 AM54 °FCool.2 mph52%30.38 "HgN/A
10:00 AM50 °FCool.2 mph55%30.40 "HgN/A
9:00 AM47 °FCool.3 mph56%30.41 "HgN/A
8:00 AM45 °FCool.2 mph59%30.40 "HgN/A
7:00 AM42 °FQuite cool.7 mph64%30.39 "HgN/A
6:00 AM39 °FChilly.8 mph68%30.37 "HgN/A
5:00 AM39 °FChilly.6 mph67%30.37 "HgN/A
Weather by CustomWeather, © 2015

See weather overviewHow to use our weather pages